Portada
METAR-TAF:

METAR-TAF

Aeroports :

Sirri Island, Iran

latitud: 25-54-34N, longitud: 054-32-22E, altitud: 13 m

Observació

L'informe es va fer fa 13 minuts, a les 04:00 UTC
Vent 6 kt del Est/Nord-Est
Temperatura 22°C
Humitat 100%
Pressió 1012 hPa
Visibilitat: 4000 m
boirina

METAR: OIBS 200400Z 06006KT 4000 BR NSC 22/22 Q1012

Hora: 07:43 (04:13 UTC)


TAF: manca

Observacions i pronòstics meteorològics de més de 4000 aeroports (METAR i TAF).

Les estacions disponibles són els punts grocs i vermells al mapa.

Posi el ratolí al punt desitjat per veure el nom de l'estació.

Feu clic per veure les observacions i els pronòstics meteorològics.

Per canviar el mapa: feu clic els botons verds amb una creu de color negre per apropar; al botó verd amb un guió per allunyar la imatge; o en les fletxes verdes per a mapes adjacents.


METAR-TAF: